Time,TemperatureF,DewpointF,PressureIn,WindDirection,WindDirectionDegrees,WindSpeedMPH,WindSpeedGustMPH,Humidity,HourlyPrecipIn,Conditions,Clouds,dailyrainin,SolarRadiationWatts/m^2,SoftwareType,DateUTC
2013-02-20 00:11:00,21.0,4.0,-100.00,WSW,257,4.0,6.0,46,-99.99,,,0.00,0.000000,,2013-02-20 07:11:00,
2013-02-20 00:21:00,21.0,4.0,-100.00,WSW,257,4.0,6.0,46,-99.99,,,0.00,0.000000,,2013-02-20 07:21:00,
2013-02-20 00:31:00,21.0,4.0,-100.00,WSW,257,4.0,6.0,46,-99.99,,,0.00,0.000000,,2013-02-20 07:31:00,
2013-02-20 00:41:00,21.0,4.0,-100.00,WSW,257,4.0,6.0,46,-99.99,,,0.00,0.000000,,2013-02-20 07:41:00,
2013-02-20 01:11:00,22.0,2.0,-100.00,SW,231,4.0,7.0,41,0.00,,,0.00,0.000000,,2013-02-20 08:11:00,
2013-02-20 01:21:00,22.0,2.0,-100.00,SW,231,4.0,7.0,41,0.00,,,0.00,0.000000,,2013-02-20 08:21:00,
2013-02-20 01:31:00,22.0,2.0,-100.00,SW,231,4.0,7.0,41,0.00,,,0.00,0.000000,,2013-02-20 08:31:00,
2013-02-20 01:41:00,22.0,2.0,-100.00,SW,231,4.0,7.0,41,0.00,,,0.00,0.000000,,2013-02-20 08:41:00,
2013-02-20 02:11:00,23.0,4.0,-100.00,NW,321,5.0,6.0,43,0.00,,,0.00,0.000000,,2013-02-20 09:11:00,
2013-02-20 02:21:00,23.0,4.0,-100.00,NW,321,5.0,6.0,43,0.00,,,0.00,0.000000,,2013-02-20 09:21:00,
2013-02-20 02:31:00,23.0,4.0,-100.00,NW,321,5.0,6.0,43,0.00,,,0.00,0.000000,,2013-02-20 09:31:00,
2013-02-20 02:42:00,23.0,4.0,-100.00,NW,321,5.0,6.0,43,0.00,,,0.00,0.000000,,2013-02-20 09:42:00,
2013-02-20 03:12:00,22.0,0.0,-100.00,WSW,237,3.0,5.0,37,0.00,,,0.00,0.000000,,2013-02-20 10:12:00,
2013-02-20 03:22:00,22.0,0.0,-100.00,WSW,237,3.0,5.0,37,0.00,,,0.00,0.000000,,2013-02-20 10:22:00,
2013-02-20 03:32:00,22.0,0.0,-100.00,WSW,237,3.0,5.0,37,0.00,,,0.00,0.000000,,2013-02-20 10:32:00,
2013-02-20 03:42:00,22.0,0.0,-100.00,WSW,237,3.0,5.0,37,0.00,,,0.00,0.000000,,2013-02-20 10:42:00,
2013-02-20 04:11:00,21.0,4.0,-100.00,WSW,243,2.0,4.0,46,0.00,,,0.00,0.000000,,2013-02-20 11:11:00,
2013-02-20 04:21:00,21.0,4.0,-100.00,WSW,243,2.0,4.0,46,0.00,,,0.00,0.000000,,2013-02-20 11:21:00,
2013-02-20 04:32:00,21.0,4.0,-100.00,WSW,243,2.0,4.0,46,0.00,,,0.00,0.000000,,2013-02-20 11:32:00,
2013-02-20 04:42:00,21.0,4.0,-100.00,WSW,243,2.0,4.0,46,0.00,,,0.00,0.000000,,2013-02-20 11:42:00,
2013-02-20 05:12:00,22.0,3.0,-100.00,NW,319,3.0,5.0,43,0.00,,,0.00,0.000000,,2013-02-20 12:12:00,
2013-02-20 05:21:00,22.0,3.0,-100.00,NW,319,3.0,5.0,43,0.00,,,0.00,0.000000,,2013-02-20 12:21:00,
2013-02-20 05:32:00,22.0,3.0,-100.00,NW,319,3.0,5.0,43,0.00,,,0.00,0.000000,,2013-02-20 12:32:00,
2013-02-20 06:11:00,19.0,1.0,-100.00,SW,231,3.0,4.0,44,-99.99,,,0.00,0.000000,,2013-02-20 13:11:00,
2013-02-20 06:22:00,19.0,1.0,-100.00,SW,231,3.0,4.0,44,-99.99,,,0.00,0.000000,,2013-02-20 13:22:00,
2013-02-20 06:31:00,19.0,1.0,-100.00,SW,231,3.0,4.0,44,-99.99,,,0.00,0.000000,,2013-02-20 13:31:00,
2013-02-20 06:42:00,19.0,1.0,-100.00,SW,231,3.0,4.0,44,-99.99,,,0.00,0.000000,,2013-02-20 13:42:00,
2013-02-20 07:11:00,18.0,1.0,-100.00,WSW,244,2.0,4.0,47,-99.99,,,0.00,0.000000,,2013-02-20 14:11:00,
2013-02-20 07:21:00,18.0,1.0,-100.00,WSW,244,2.0,4.0,47,-99.99,,,0.00,0.000000,,2013-02-20 14:21:00,
2013-02-20 07:32:00,18.0,1.0,-100.00,WSW,244,2.0,4.0,47,-99.99,,,0.00,0.000000,,2013-02-20 14:32:00,
2013-02-20 08:11:00,19.0,4.0,-100.00,NNW,330,2.0,5.0,52,-99.99,,,0.00,25.000000,,2013-02-20 15:11:00,
2013-02-20 08:22:00,19.0,4.0,-100.00,NNW,330,2.0,5.0,52,-99.99,,,0.00,25.000000,,2013-02-20 15:22:00,
2013-02-20 08:32:00,19.0,4.0,-100.00,NNW,330,2.0,5.0,52,-99.99,,,0.00,25.000000,,2013-02-20 15:32:00,
2013-02-20 09:12:00,24.0,4.0,-100.00,SW,230,3.0,4.0,41,-99.99,,,0.00,166.000000,,2013-02-20 16:12:00,
2013-02-20 10:11:00,32.0,-1.0,-100.00,NE,46,2.0,3.0,24,-99.99,,,0.00,318.000000,,2013-02-20 17:11:00,
2013-02-20 11:11:00,30.0,-1.0,-100.00,ENE,59,4.0,5.0,26,-99.99,,,0.00,505.000000,,2013-02-20 18:11:00,
2013-02-20 11:21:00,30.0,-1.0,-100.00,ENE,59,4.0,5.0,26,-99.99,,,0.00,505.000000,,2013-02-20 18:21:00,
2013-02-20 11:32:00,30.0,-1.0,-100.00,ENE,59,4.0,5.0,26,-99.99,,,0.00,505.000000,,2013-02-20 18:32:00,
2013-02-20 11:42:00,30.0,-1.0,-100.00,ENE,59,4.0,5.0,26,-99.99,,,0.00,505.000000,,2013-02-20 18:42:00,
2013-02-20 12:11:00,29.0,4.0,-100.00,East,92,5.0,6.0,33,0.00,,,-99.99,609.000000,,2013-02-20 19:11:00,
2013-02-20 12:21:00,29.0,4.0,-100.00,East,92,5.0,6.0,33,0.00,,,-99.99,609.000000,,2013-02-20 19:21:00,
2013-02-20 12:31:00,29.0,4.0,-100.00,East,92,5.0,6.0,33,0.00,,,-99.99,609.000000,,2013-02-20 19:31:00,
2013-02-20 12:41:00,29.0,4.0,-100.00,East,92,5.0,6.0,33,0.00,,,-99.99,609.000000,,2013-02-20 19:41:00,
2013-02-20 13:11:00,28.0,4.0,-100.00,ENE,77,4.0,6.0,35,0.00,,,0.00,404.000000,,2013-02-20 20:11:00,
2013-02-20 13:21:00,28.0,4.0,-100.00,ENE,77,4.0,6.0,35,0.00,,,0.00,404.000000,,2013-02-20 20:21:00,
2013-02-20 13:31:00,28.0,4.0,-100.00,ENE,77,4.0,6.0,35,0.00,,,0.00,404.000000,,2013-02-20 20:31:00,
2013-02-20 13:41:00,28.0,4.0,-100.00,ENE,77,4.0,6.0,35,0.00,,,0.00,404.000000,,2013-02-20 20:41:00,
2013-02-20 14:11:00,30.0,2.0,-100.00,ENE,68,4.0,5.0,29,0.00,,,0.00,461.000000,,2013-02-20 21:11:00,
2013-02-20 14:21:00,30.0,2.0,-100.00,ENE,68,4.0,5.0,29,0.00,,,0.00,461.000000,,2013-02-20 21:21:00,
2013-02-20 14:31:00,30.0,2.0,-100.00,ENE,68,4.0,5.0,29,0.00,,,0.00,461.000000,,2013-02-20 21:31:00,
2013-02-20 14:42:00,30.0,2.0,-100.00,ENE,68,4.0,5.0,29,0.00,,,0.00,461.000000,,2013-02-20 21:42:00,
2013-02-20 15:11:00,25.0,4.0,-100.00,East,95,4.0,6.0,40,0.00,,,0.00,300.000000,,2013-02-20 22:11:00,
2013-02-20 15:21:00,25.0,4.0,-100.00,East,95,4.0,6.0,40,0.00,,,0.00,300.000000,,2013-02-20 22:21:00,
2013-02-20 15:31:00,25.0,4.0,-100.00,East,95,4.0,6.0,40,0.00,,,0.00,300.000000,,2013-02-20 22:31:00,
2013-02-20 15:42:00,25.0,4.0,-100.00,East,95,4.0,6.0,40,0.00,,,0.00,300.000000,,2013-02-20 22:42:00,
2013-02-20 16:12:00,25.0,9.0,-100.00,ESE,117,2.0,6.0,51,0.00,,,0.00,192.000000,,2013-02-20 23:12:00,
2013-02-20 16:22:00,25.0,9.0,-100.00,ESE,117,2.0,6.0,51,0.00,,,0.00,192.000000,,2013-02-20 23:22:00,
2013-02-20 16:32:00,25.0,9.0,-100.00,ESE,117,2.0,6.0,51,0.00,,,0.00,192.000000,,2013-02-20 23:32:00,
2013-02-20 16:42:00,25.0,9.0,-100.00,ESE,117,2.0,6.0,51,0.00,,,0.00,192.000000,,2013-02-20 23:42:00,
2013-02-20 17:11:00,23.0,8.0,-100.00,SE,127,1.0,4.0,53,0.00,,,0.00,144.000000,,2013-02-21 00:11:00,
2013-02-20 17:21:00,23.0,8.0,-100.00,SE,127,1.0,4.0,53,0.00,,,0.00,144.000000,,2013-02-21 00:21:00,
2013-02-20 17:32:00,23.0,8.0,-100.00,SE,127,1.0,4.0,53,0.00,,,0.00,144.000000,,2013-02-21 00:32:00,
2013-02-20 17:42:00,23.0,8.0,-100.00,SE,127,1.0,4.0,53,0.00,,,0.00,144.000000,,2013-02-21 00:42:00,
2013-02-20 18:11:00,17.0,10.0,-100.00,SE,141,2.0,3.0,74,0.00,,,0.00,32.000000,,2013-02-21 01:11:00,
2013-02-20 18:21:00,17.0,10.0,-100.00,SE,141,2.0,3.0,74,0.00,,,0.00,32.000000,,2013-02-21 01:21:00,
2013-02-20 18:32:00,17.0,10.0,-100.00,SE,141,2.0,3.0,74,0.00,,,0.00,32.000000,,2013-02-21 01:32:00,
2013-02-20 18:42:00,17.0,10.0,-100.00,SE,141,2.0,3.0,74,0.00,,,0.00,32.000000,,2013-02-21 01:42:00,
2013-02-20 19:11:00,13.0,6.0,-100.00,WSW,241,4.0,6.0,72,0.00,,,0.00,0.000000,,2013-02-21 02:11:00,
2013-02-20 19:21:00,13.0,6.0,-100.00,WSW,241,4.0,6.0,72,0.00,,,0.00,0.000000,,2013-02-21 02:21:00,
2013-02-20 19:32:00,13.0,6.0,-100.00,WSW,241,4.0,6.0,72,0.00,,,0.00,0.000000,,2013-02-21 02:32:00,
2013-02-20 19:42:00,13.0,6.0,-100.00,WSW,241,4.0,6.0,72,0.00,,,0.00,0.000000,,2013-02-21 02:42:00,
2013-02-20 20:12:00,14.0,5.0,-100.00,SE,130,2.0,4.0,67,0.00,,,0.00,0.000000,,2013-02-21 03:12:00,
2013-02-20 20:21:00,14.0,5.0,-100.00,SE,130,2.0,4.0,67,0.00,,,0.00,0.000000,,2013-02-21 03:21:00,
2013-02-20 20:32:00,14.0,5.0,-100.00,SE,130,2.0,4.0,67,0.00,,,0.00,0.000000,,2013-02-21 03:32:00,
2013-02-20 20:42:00,14.0,5.0,-100.00,SE,130,2.0,4.0,67,0.00,,,0.00,0.000000,,2013-02-21 03:42:00,
2013-02-20 21:11:00,13.0,2.0,-100.00,SSE,151,3.0,5.0,61,0.00,,,-99.99,0.000000,,2013-02-21 04:11:00,
2013-02-20 21:22:00,13.0,2.0,-100.00,SSE,151,3.0,5.0,61,0.00,,,-99.99,0.000000,,2013-02-21 04:22:00,
2013-02-20 21:32:00,13.0,2.0,-100.00,SSE,151,3.0,5.0,61,0.00,,,-99.99,0.000000,,2013-02-21 04:32:00,
2013-02-20 21:42:00,13.0,2.0,-100.00,SSE,151,3.0,5.0,61,0.00,,,-99.99,0.000000,,2013-02-21 04:42:00,
2013-02-20 22:12:00,11.0,0.0,-100.00,WSW,239,4.0,5.0,60,0.00,,,0.00,0.000000,,2013-02-21 05:12:00,
2013-02-20 22:22:00,11.0,0.0,-100.00,WSW,239,4.0,5.0,60,0.00,,,0.00,0.000000,,2013-02-21 05:22:00,
2013-02-20 22:34:00,11.0,0.0,-100.00,WSW,239,4.0,5.0,60,0.00,,,0.00,0.000000,,2013-02-21 05:34:00,
2013-02-20 22:44:00,11.0,0.0,-100.00,WSW,239,4.0,5.0,60,0.00,,,0.00,0.000000,,2013-02-21 05:44:00,
2013-02-20 23:01:00,12.0,0.0,-100.00,SW,236,3.0,5.0,59,0.00,,,0.00,0.000000,,2013-02-21 06:01:00,
2013-02-20 23:11:00,12.0,0.0,-100.00,SW,236,3.0,5.0,59,0.00,,,0.00,0.000000,,2013-02-21 06:11:00,
2013-02-20 23:21:00,12.0,0.0,-100.00,SW,236,3.0,5.0,59,0.00,,,0.00,0.000000,,2013-02-21 06:21:00,
2013-02-20 23:31:00,12.0,0.0,-100.00,SW,236,3.0,5.0,59,0.00,,,0.00,0.000000,,2013-02-21 06:31:00,
2013-02-20 23:41:00,12.0,0.0,-100.00,SW,236,3.0,5.0,59,0.00,,,0.00,0.000000,,2013-02-21 06:41:00,